CAPE
29 16 21 19 25 28 33 44 59 25 14 15 35 25 25 14 10 11 8 2 37 243
26 26 31 23 31 25 20 30 32 45 15 23 30 24 20 14 10 10 5 11 1 2
28 19 20 25 37 34 32 34 35 30 27 32 19 35 17 15 8 8 7 4 32 27
22 21 19 27 38 38 41 37 31 24 35 17 25 26 27 16 15 7 7 4 25 80
13 16 29 27 37 36 35 36 23 34 27 25 27 23 21 25 15 13 6 2 2 94
24 19 19 21 22 33 42 39 29 39 30 47 30 26 16 18 17 12 9 5 5 1
24 27 27 21 28 49 43 57 40 50 45 45 26 19 14 13 26 11 7 7 6 5
19 24 25 30 29 33 49 39 55 57 49 45 28 16 14 11 13 28 8 9 4 3
14 17 21 27 22 30 25 40 57 51 37 32 40 0 7 9 9 16 12 9 4 3
19 22 23 21 17 15 30 42 59 36 41 25 28 0 7 2 7 16 17 13 7 5
16 18 16 16 7 19 28 45 52 38 40 33 31 0 4 1 12 16 12 11 9 6
15 17 11 6 18 18 28 35 49 37 28 40 36 1 1 6 27 15 23 9 7 8
9 12 4 14 21 25 26 27 42 29 34 23 43 7 1 12 19 18 20 22 8 1
9 7 6 12 24 22 27 33 41 25 37 31 23 20 6 6 18 10 21 18 5 4
CIN
0 -1 0 0 -1 0 0 0 0 0 0 0 0 0 0 0 0 0 0 -1 -14 -2
0 0 0 0 0 0 0 0 0 0 0 0 0 0 0 0 0 0 0 -89 -105 -1
0 0 0 0 0 0 0 0 0 0 0 0 0 0 0 0 0 0 0 0 -4 -38
0 0 -1 0 0 0 0 0 0 0 0 0 0 0 0 0 0 0 0 0 0 0
0 0 0 0 0 0 0 0 0 0 0 0 0 0 0 0 0 0 0 0 0 -11
0 0 0 0 0 0 0 0 0 0 0 0 0 0 0 0 0 0 0 0 0 0
0 0 0 0 0 0 0 0 0 0 0 0 0 0 0 0 0 0 0 0 0 0
0 0 0 0 0 0 0 0 0 0 0 0 0 0 0 0 0 0 0 0 0 0
0 0 0 0 0 0 0 0 0 0 0 0 0 0 0 0 0 0 0 0 0 0
0 0 0 0 0 0 0 0 0 0 0 0 0 0 0 0 0 0 0 0 0 0
0 0 0 0 0 0 0 0 0 0 0 0 0 0 0 0 0 -1 0 0 0 0
0 0 0 0 0 0 0 0 0 0 0 0 0 -4 0 0 0 0 0 0 0 0
0 0 0 0 0 0 0 0 0 0 0 0 0 -2 0 0 0 0 0 0 0 0
0 0 0 0 0 0 0 0 0 0 0 0 0 0 0 0 0 0 0 0 0 0
Wind_Speed
16 9 9 12 12 10 11 13 16 14 15 17 16 14 11 9 10 12 12 19 7 13
16 17 14 15 12 10 13 12 15 15 16 16 18 15 15 8 11 11 11 12 20 11
15 17 16 13 14 15 13 14 15 16 15 17 17 16 15 12 10 11 9 10 16 18
16 16 13 12 13 15 14 14 15 15 13 17 16 17 15 15 13 12 12 11 12 15
15 13 12 12 14 14 14 13 14 14 14 15 15 15 18 16 14 13 13 12 11 13
13 13 13 11 13 14 14 12 13 15 14 14 17 16 17 18 12 13 13 11 10 12
16 16 14 12 12 13 14 13 12 13 14 14 15 18 18 18 15 11 12 11 10 10
16 16 16 15 12 16 14 14 14 14 13 14 11 14 19 18 16 14 14 10 11 10
14 16 16 16 15 14 17 16 14 13 13 12 9 23 26 24 15 14 13 12 11 12
16 16 17 18 16 15 16 16 13 13 14 13 13 22 26 27 12 10 11 12 12 11
16 17 17 18 15 13 13 14 12 13 13 12 11 21 26 27 13 10 10 11 11 11
16 17 17 16 14 13 12 14 13 11 14 13 14 20 25 22 14 12 11 9 9 10
15 16 14 14 13 12 12 13 12 12 12 13 14 19 24 22 10 12 10 9 10 14
14 14 14 13 11 13 11 12 12 12 12 13 14 17 23 24 13 10 8 9 8 7
Wind_Direction
352 4 337 343 329 329 332 334 330 334 335 329 330 332 326 311 300 292 310 228 219 226
4 346 342 342 330 330 331 327 333 334 334 336 329 334 330 315 305 300 288 272 231 235
0 357 349 332 333 330 331 333 332 331 342 337 337 332 336 326 313 302 292 307 217 226
4 349 336 333 334 330 331 337 334 333 342 339 341 339 333 332 324 322 305 289 286 208
358 337 334 340 336 336 333 335 336 334 335 344 344 343 337 332 331 328 317 307 306 246
343 343 345 343 335 342 332 336 340 334 340 345 345 348 341 333 338 331 321 319 312 287
341 342 345 0 341 346 335 343 343 331 342 346 350 353 344 340 332 337 337 336 323 337
342 337 344 351 1 348 344 346 342 340 350 346 354 359 346 343 332 339 345 345 354 5
339 342 347 354 8 352 348 340 345 347 350 344 347 353 352 346 330 337 347 348 353 7
349 349 354 360 1 349 341 338 343 352 352 347 355 357 353 345 328 340 340 353 358 359
352 349 0 353 348 344 334 339 345 358 347 348 353 3 352 348 335 338 338 349 356 3
355 350 354 348 345 342 337 337 347 353 353 349 351 7 354 352 344 341 341 345 353 358
0 351 350 346 341 339 340 343 346 355 358 351 355 2 356 352 342 344 337 352 357 359
4 349 350 345 343 342 345 347 348 353 356 351 355 1 356 351 350 346 339 350 349 347